This is the latest recevied weather packets stored in our database for station/object KR8N. If no packets are shown the sender has not sent any weather packets the latest 1 day(s).
| Time | Temp. | Humidity | Pressure | Rain* | Wind** | Luminosity | Snow |
|---|---|---|---|---|---|---|---|
| 1778003901 | 22.22° C | 40% | 1016.3 hPa | 0 mm | 0.89 m/s, 166° | 432 W/m² | - |
| 1778003597 | 22.22° C | 37% | 1016.3 hPa | 0 mm | 1.34 m/s, 278° | 470 W/m² | - |
| 1778003294 | 22.22° C | 40% | 1016.4 hPa | 0 mm | 0.89 m/s, 121° | 496 W/m² | - |
| 1778002991 | 22.22° C | 38% | 1016.4 hPa | 0 mm | 0.45 m/s, 117° | 471 W/m² | - |
| 1778002687 | 22.22° C | 39% | 1016.7 hPa | 0 mm | 0.89 m/s, 164° | 474 W/m² | - |
| 1778002384 | 22.22° C | 40% | 1016.7 hPa | 0 mm | 0.89 m/s, 45° | 483 W/m² | - |
| 1778002091 | 21.67° C | 38% | 1016.7 hPa | 0 mm | 0.89 m/s, 181° | 487 W/m² | - |
| 1778001778 | 22.22° C | 37% | 1016.3 hPa | 0 mm | 1.34 m/s, 143° | 450 W/m² | - |
| 1778001473 | 22.22° C | 39% | 1016.4 hPa | 0 mm | 0.89 m/s, 108° | 578 W/m² | - |
| 1778001170 | 22.22° C | 39% | 1016.3 hPa | 0 mm | 1.79 m/s, 143° | 688 W/m² | - |
| 1778000866 | 22.22° C | 42% | 1016.6 hPa | 0 mm | 0.45 m/s, 204° | 645 W/m² | - |
| 1778000564 | 22.22° C | 40% | 1016.7 hPa | 0 mm | 1.79 m/s, 288° | 695 W/m² | - |
| 1778000264 | 22.22° C | 45% | 1016.9 hPa | 0 mm | 0.89 m/s, 104° | 681 W/m² | - |
| 1777999960 | 22.22° C | 41% | 1016.9 hPa | 0 mm | 0.89 m/s, 141° | 703 W/m² | - |
| 1777999655 | 22.22° C | 39% | 1016.9 hPa | 0 mm | 0.89 m/s, 195° | 620 W/m² | - |
| 1777999353 | 21.67° C | 42% | 1017.1 hPa | 0 mm | 1.79 m/s, 237° | 773 W/m² | - |
| 1777999051 | 22.22° C | 41% | 1017.1 hPa | 0 mm | 1.34 m/s, 191° | 694 W/m² | - |
| 1777998749 | 22.78° C | 39% | 1017.1 hPa | 0 mm | 1.34 m/s, 112° | 827 W/m² | - |
| 1777998446 | 21.67° C | 40% | 1017 hPa | 0 mm | 1.34 m/s, 168° | 829 W/m² | - |
| 1777998143 | 21.67° C | 44% | 1017.1 hPa | 0 mm | 0.89 m/s, 170° | 792 W/m² | - |
| 1777997840 | 22.22° C | 44% | 1017.4 hPa | 0 mm | 0.45 m/s, 100° | 775 W/m² | - |
| 1777997538 | 21.67° C | 43% | 1017.4 hPa | 0 mm | 1.34 m/s, 247° | 823 W/m² | - |
| 1777997235 | 21.67° C | 40% | 1017.4 hPa | 0 mm | 3.13 m/s, 194° | 884 W/m² | - |
| 1777996933 | 21.67° C | 40% | 1017.6 hPa | 0 mm | 3.13 m/s, 289° | 700 W/m² | - |
| 1777996629 | 22.22° C | 41% | 1017.1 hPa | 0 mm | 1.79 m/s, 189° | 820 W/m² | - |
* Rain latest hour (hover to see other rain measurements)
** Current wind speed in m/s (hover to see current wind gust speed)